カタログに戻る

STARLINK-35132

運用中通信VLEO
NORAD 66461·PAYLOAD·🇺🇸 United States

打ち上げ Nov 15, 2025 から Cape Canaveral Space Force Station

Loading…

次のパス (今後24時間)

TLE

最新Source: CelesTrak SupGP

元期: Sep 15, 2026, 03:27 UTC

1 66461C 25262F   26258.14423611  .00029284  00000+0  10606-2 0  2582
2 66461  43.0004 306.0650 0001415 267.3738  69.4800 15.27566573    18

AllMySatでSTARLINK-35132をリアルタイム追跡

Download on the App Store